Temp
-2 -2 -3 -4 -4 -4 -5 -5 -5 -6 -6 -6 -6 -7 -7 -9 -8 -8 -7 -7 -7 -6 -6 -5 -4 -4 -4 -3 -3 -2 -2 -1 -1 -0 -0 -0 2 1 1 2 2 3 3
-3 -3 -4 -4 -4 -4 -5 -5 -6 -7 -7 -8 -8 -8 -10 -10 -10 -9 -8 -8 -7 -7 -6 -6 -5 -5 -4 -4 -3 -3 -3 -3 -2 -1 -1 -1 1 0 0 1 2 2 3
-4 -4 -5 -5 -4 -5 -5 -6 -7 -8 -8 -9 -10 -11 -11 -10 -10 -10 -10 -9 -8 -7 -7 -6 -6 -5 -5 -5 -4 -3 -3 -3 -3 -3 -1 -1 1 -0 -0 0 1 2 2
-5 -5 -5 -5 -5 -6 -6 -7 -8 -8 -9 -9 -11 -11 -11 -10 -10 -10 -10 -9 -9 -8 -8 -7 -6 -6 -5 -5 -5 -4 -4 -4 -4 -3 -3 -2 -1 -0 -1 -1 0 2 2
-6 -6 -6 -6 -6 -6 -7 -8 -9 -9 -10 -10 -10 -11 -12 -11 -10 -10 -10 -10 -10 -10 -8 -7 -6 -6 -6 -5 -5 -5 -5 -4 -5 -4 -4 -2 -2 -1 -1 -1 -1 0 1
-7 -7 -7 -7 -7 -8 -9 -9 -10 -10 -10 -10 -11 -11 -11 -11 -11 -11 -10 -10 -10 -10 -9 -8 -7 -6 -6 -6 -5 -5 -5 -4 -5 -5 -4 -4 -3 -2 -2 -1 -1 -0 0
-7 -7 -8 -8 -8 -9 -9 -9 -10 -11 -11 -11 -11 -12 -11 -11 -11 -11 -10 -10 -10 -11 -10 -10 -7 -7 -6 -6 -6 -6 -6 -5 -5 -5 -5 -4 -4 -3 -2 -1 -2 -1 -0
-8 -8 -8 -9 -9 -9 -10 -10 -11 -11 -11 -11 -12 -12 -11 -11 -11 -11 -11 -10 -10 -10 -11 -9 -7 -7 -7 -7 -6 -6 -5 -5 -5 -5 -5 -4 -4 -3 -2 -2 -2 -2 -1
-9 -9 -9 -10 -9 -10 -10 -11 -11 -11 -11 -11 -12 -12 -12 -12 -11 -11 -11 -11 -10 -10 -9 -8 -7 -7 -7 -6 -6 -6 -6 -5 -5 -5 -5 -5 -5 -4 -3 -2 -2 -2 -1
-9 -9 -10 -10 -9 -10 -10 -11 -11 -11 -11 -12 -13 -12 -12 -12 -12 -11 -11 -11 -10 -9 -9 -8 -8 -7 -6 -6 -6 -6 -6 -5 -5 -5 -5 -5 -4 -4 -3 -2 -2 -2 -1
-10 -10 -10 -10 -10 -10 -10 -10 -10 -10 -11 -12 -12 -12 -12 -12 -11 -11 -11 -11 -10 -8 -8 -7 -7 -7 -6 -6 -6 -6 -6 -6 -5 -6 -6 -5 -5 -4 -3 -3 -2 -2 -1
-10 -10 -10 -10 -10 -10 -10 -10 -10 -10 -11 -11 -11 -11 -11 -11 -11 -11 -11 -10 -9 -8 -7 -7 -6 -6 -6 -6 -6 -6 -6 -6 -6 -6 -6 -5 -4 -4 -3 -3 -3 -2 -1
-10 -10 -10 -10 -10 -10 -10 -10 -10 -10 -11 -10 -10 -10 -10 -10 -10 -9 -9 -8 -8 -7 -7 -6 -6 -6 -6 -7 -7 -7 -6 -6 -6 -5 -5 -5 -4 -4 -3 -4 -3 -2 -2
-9 -10 -10 -9 -10 -10 -10 -10 -9 -9 -9 -9 -9 -8 -8 -8 -8 -8 -8 -7 -7 -7 -7 -7 -7 -7 -7 -7 -6 -5 -6 -6 -6 -6 -5 -5 -4 -4 -4 -3 -2 -2 -1
-10 -10 -10 -10 -9 -9 -9 -9 -8 -8 -8 -8 -7 -7 -7 -7 -8 -8 -8 -8 -8 -8 -8 -8 -8 -8 -8 -7 -7 -6 -6 -6 -6 -6 -5 -5 -5 -5 -4 -3 -2 -1 -2
-10 -10 -10 -9 -9 -9 -9 -7 -8 -7 -7 -8 -7 -7 -8 -8 -8 -8 -8 -8 -8 -8 -8 -7 -8 -7 -7 -6 -6 -6 -6 -6 -6 -5 -6 -6 -5 -4 -3 -2 -2 -3 -2
-10 -9 -9 -9 -8 -9 -8 -6 -7 -7 -8 -7 -7 -8 -7 -7 -7 -7 -7 -7 -6 -7 -8 -7 -7 -6 -7 -6 -6 -6 -6 -6 -5 -6 -7 -4 -3 -3 -2 -3 -3 -3 -3
-9 -9 -9 -9 -8 -9 -8 -7 -7 -8 -7 -7 -7 -7 -7 -7 -7 -7 -7 -7 -7 -7 -6 -6 -7 -7 -6 -6 -6 -6 -6 -6 -7 -5 -4 -3 -2 -3 -3 -3 -3 -3 -3
-9 -9 -9 -9 -8 -8 -8 -8 -8 -7 -7 -7 -7 -8 -8 -8 -7 -7 -7 -7 -7 -7 -7 -7 -7 -7 -7 -7 -8 -8 -6 -5 -4 -3 -3 -3 -3 -3 -3 -4 -3 -3 -3
-9 -9 -8 -8 -8 -8 -8 -7 -8 -7 -7 -8 -8 -8 -8 -8 -7 -7 -7 -7 -7 -7 -7 -8 -9 -9 -9 -8 -7 -6 -6 -4 -4 -4 -3 -3 -3 -4 -4 -3 -2 -2 -2
-9 -8 -8 -8 -8 -8 -8 -8 -8 -7 -7 -8 -8 -8 -8 -8 -8 -8 -9 -9 -9 -9 -9 -9 -8 -7 -7 -8 -7 -5 -5 -5 -4 -3 -3 -3 -3 -4 -3 -2 -1 -1 -2
-9 -9 -8 -8 -8 -8 -8 -8 -8 -8 -8 -8 -8 -8 -8 -8 -9 -10 -9 -9 -9 -8 -8 -9 -10 -9 -7 -6 -6 -6 -6 -4 -3 -3 -3 -3 -3 -3 -2 -1 -1 -1 -1
-9 -9 -8 -8 -8 -8 -8 -8 -8 -8 -8 -8 -8 -8 -8 -8 -8 -8 -8 -9 -8 -8 -8 -9 -8 -7 -7 -7 -7 -6 -5 -4 -3 -3 -2 -2 -3 -3 -1 -1 -1 -1 -1
-10 -10 -9 -8 -8 -9 -8 -8 -8 -8 -9 -9 -9 -8 -8 -8 -8 -8 -9 -9 -8 -8 -8 -8 -7 -7 -7 -7 -7 -5 -5 -4 -3 -3 -2 -3 -3 -3 -1 -1 -1 -1 -1
-10 -10 -10 -9 -9 -9 -9 -9 -9 -9 -9 -9 -9 -8 -8 -8 -8 -9 -9 -9 -8 -8 -7 -7 -7 -7 -7 -6 -6 -5 -5 -4 -3 -3 -3 -3 -3 -3 -3 -2 -2 -2 -2
-10 -10 -10 -10 -10 -10 -10 -9 -9 -9 -9 -9 -9 -8 -8 -8 -8 -9 -9 -9 -8 -7 -7 -7 -7 -6 -6 -6 -6 -5 -5 -4 -3 -3 -3 -2 -2 -2 -3 -3 -2 -2 -2
Height
3047 3039 3031 3024 3018 3011 3004 2999 2994 2989 2985 2980 2977 2974 2973 2972 2973 2975 2977 2979 2980 2981 2983 2985 2986 2988 2990 2993 2995 2999 3002 3006 3010 3022 3027 3027 3033 3038 3042 3047 3048 3053 3057
3033 3025 3018 3011 3004 2997 2990 2984 2979 2973 2970 2965 2962 2960 2960 2961 2961 2961 2964 2966 2968 2969 2971 2973 2975 2977 2979 2982 2984 2986 2990 2994 2998 3003 3012 3017 3020 3029 3032 3037 3039 3043 3047
3020 3013 3006 2998 2990 2982 2975 2969 2964 2959 2956 2951 2948 2947 2947 2948 2949 2950 2952 2953 2955 2957 2959 2961 2965 2967 2968 2971 2974 2975 2978 2982 2985 2988 2999 3004 3007 3016 3020 3025 3029 3033 3037
3009 3000 2992 2984 2976 2967 2960 2953 2948 2944 2940 2937 2936 2934 2934 2934 2935 2937 2938 2940 2943 2945 2948 2950 2953 2956 2958 2960 2963 2966 2967 2970 2973 2976 2982 2992 2995 3002 3008 3014 3019 3022 3028
2996 2988 2980 2971 2963 2955 2946 2939 2934 2929 2925 2922 2920 2919 2919 2920 2920 2921 2925 2927 2930 2933 2936 2938 2942 2945 2947 2949 2952 2955 2957 2959 2962 2966 2971 2979 2982 2989 2996 3003 3010 3015 3018
2985 2977 2968 2960 2951 2943 2935 2926 2920 2915 2910 2907 2904 2904 2905 2906 2907 2908 2912 2916 2920 2922 2925 2928 2931 2933 2936 2938 2940 2944 2946 2949 2952 2956 2960 2966 2971 2980 2987 2994 3000 3005 3008
2974 2965 2957 2947 2938 2930 2922 2914 2907 2901 2896 2892 2889 2889 2890 2892 2894 2895 2899 2902 2907 2911 2915 2917 2919 2922 2923 2925 2928 2932 2935 2938 2942 2946 2949 2955 2961 2970 2978 2985 2990 2995 3000
2963 2954 2945 2935 2926 2917 2907 2900 2894 2889 2883 2879 2877 2877 2878 2880 2882 2884 2886 2890 2894 2899 2902 2905 2908 2911 2912 2915 2917 2921 2925 2928 2932 2936 2940 2945 2951 2959 2966 2975 2981 2985 2988
2952 2943 2934 2924 2914 2904 2895 2888 2883 2878 2872 2868 2867 2866 2867 2869 2871 2873 2876 2879 2882 2887 2890 2894 2898 2901 2903 2905 2907 2910 2914 2918 2922 2925 2930 2936 2940 2948 2954 2962 2964 2970 2978
2942 2933 2924 2914 2905 2895 2886 2878 2872 2867 2862 2860 2858 2857 2858 2859 2861 2864 2866 2868 2872 2876 2880 2883 2887 2890 2893 2895 2897 2901 2904 2909 2913 2918 2921 2926 2930 2937 2945 2948 2957 2965 2970
2933 2924 2915 2906 2896 2887 2878 2871 2864 2858 2854 2851 2849 2848 2849 2850 2852 2854 2857 2858 2860 2865 2869 2873 2877 2880 2884 2886 2889 2891 2896 2902 2906 2909 2913 2917 2923 2928 2935 2944 2951 2956 2962
2925 2916 2907 2898 2888 2879 2871 2864 2858 2851 2847 2844 2842 2840 2840 2841 2842 2844 2845 2848 2852 2855 2859 2864 2867 2871 2874 2877 2880 2885 2890 2894 2897 2901 2905 2909 2914 2921 2928 2937 2943 2949 2954
2918 2909 2900 2891 2882 2874 2865 2858 2852 2847 2842 2839 2837 2835 2835 2834 2835 2836 2838 2841 2845 2847 2850 2854 2857 2861 2865 2868 2873 2878 2882 2884 2890 2893 2898 2904 2910 2917 2923 2930 2937 2943 2945
2911 2903 2894 2884 2876 2868 2861 2854 2849 2844 2840 2837 2834 2832 2831 2830 2830 2831 2831 2833 2835 2837 2839 2840 2844 2850 2856 2860 2863 2867 2871 2877 2883 2888 2893 2899 2905 2911 2919 2926 2931 2935 2938
2907 2898 2889 2879 2870 2863 2858 2852 2847 2844 2839 2836 2833 2830 2827 2826 2825 2823 2823 2824 2826 2828 2829 2826 2829 2837 2844 2849 2855 2860 2867 2874 2879 2883 2889 2895 2902 2909 2916 2921 2925 2928 2930
2902 2893 2885 2875 2867 2861 2853 2848 2845 2841 2838 2834 2830 2826 2823 2818 2814 2812 2812 2812 2814 2819 2820 2821 2826 2833 2841 2847 2854 2860 2866 2870 2875 2881 2886 2894 2901 2908 2912 2916 2920 2924 2925
2899 2891 2882 2874 2867 2859 2851 2846 2844 2841 2835 2832 2828 2825 2822 2818 2812 2809 2809 2808 2809 2816 2821 2825 2831 2838 2844 2849 2854 2860 2865 2870 2874 2879 2887 2894 2899 2905 2909 2913 2916 2919 2920
2900 2891 2882 2874 2867 2861 2855 2850 2847 2842 2838 2834 2832 2829 2827 2825 2822 2820 2818 2819 2819 2825 2829 2833 2838 2843 2847 2852 2855 2860 2865 2870 2876 2882 2888 2893 2898 2903 2907 2910 2913 2916 2916
2897 2889 2882 2875 2869 2863 2860 2855 2853 2849 2846 2843 2840 2837 2835 2832 2832 2830 2830 2831 2832 2833 2837 2840 2843 2847 2851 2855 2859 2864 2869 2874 2879 2884 2888 2893 2897 2900 2904 2908 2911 2913 2916
2899 2891 2885 2877 2871 2867 2864 2860 2858 2855 2852 2850 2847 2843 2842 2841 2840 2840 2840 2840 2841 2843 2845 2847 2850 2854 2858 2862 2865 2868 2873 2877 2881 2886 2888 2891 2896 2901 2905 2907 2911 2915 2918
2900 2895 2888 2881 2875 2872 2870 2867 2865 2863 2859 2856 2854 2852 2851 2850 2848 2848 2848 2849 2850 2852 2854 2856 2858 2860 2862 2865 2869 2872 2876 2881 2884 2886 2888 2891 2897 2902 2905 2908 2914 2916 2920
2903 2899 2893 2887 2883 2880 2876 2874 2872 2869 2866 2864 2862 2861 2860 2858 2858 2857 2857 2858 2860 2861 2862 2863 2865 2867 2870 2871 2873 2877 2881 2885 2886 2888 2892 2896 2899 2903 2907 2911 2916 2919 2922
2905 2901 2897 2892 2889 2887 2884 2881 2878 2875 2873 2871 2870 2869 2869 2868 2867 2866 2866 2867 2867 2867 2867 2871 2874 2876 2876 2876 2878 2882 2885 2889 2890 2892 2895 2899 2904 2907 2910 2914 2917 2922 2927
2907 2904 2900 2897 2893 2890 2888 2886 2884 2882 2881 2879 2878 2878 2877 2875 2873 2873 2873 2873 2872 2875 2876 2879 2880 2881 2881 2882 2884 2887 2890 2893 2895 2897 2900 2905 2908 2911 2914 2918 2922 2925 2930
2908 2905 2902 2899 2896 2895 2893 2891 2890 2888 2887 2886 2885 2884 2883 2881 2880 2878 2879 2879 2880 2882 2884 2885 2887 2887 2888 2889 2891 2893 2896 2898 2900 2902 2906 2909 2912 2916 2919 2922 2926 2929 2935
2910 2907 2906 2903 2900 2898 2897 2897 2895 2894 2893 2892 2891 2890 2889 2887 2886 2884 2886 2887 2887 2889 2891 2892 2893 2893 2894 2895 2897 2898 2901 2904 2906 2909 2912 2915 2917 2921 2925 2929 2933 2936 2940
Wind_Speed
55 54 52 49 48 47 47 45 45 46 46 48 49 46 47 47 47 44 40 36 38 39 38 39 42 42 40 40 42 44 46 55 62 60 60 57 48 44 45 44 41 38 38
54 52 50 48 49 49 50 50 47 45 44 44 44 42 40 39 39 41 39 37 36 38 37 37 38 40 40 40 40 43 43 45 52 68 56 60 58 46 44 47 45 41 40
53 50 48 48 50 50 50 49 48 46 45 42 40 38 39 39 38 39 37 39 37 35 37 38 36 37 38 38 39 42 44 44 46 52 60 57 64 55 50 48 50 45 43
50 48 48 49 50 51 49 45 43 44 46 43 37 37 40 43 42 39 39 41 40 37 35 36 34 35 37 39 40 43 46 43 45 47 49 55 60 63 50 50 51 49 44
48 48 48 49 51 50 48 46 43 43 44 43 41 39 39 43 51 44 43 36 37 34 32 33 35 34 37 38 40 42 44 46 42 45 53 51 60 59 53 52 46 48 45
47 48 50 51 52 48 45 45 45 44 44 43 43 39 39 40 40 46 45 32 31 32 33 33 32 35 34 36 40 41 42 43 43 41 47 53 47 59 59 50 47 46 48
48 49 51 52 52 48 47 44 39 40 40 39 37 35 36 38 40 41 45 41 39 33 32 31 30 30 34 36 38 41 40 42 42 39 40 45 45 54 54 44 48 46 47
48 51 52 51 48 49 45 41 38 37 39 36 33 32 33 34 36 36 38 43 42 39 35 35 32 29 33 33 35 39 39 39 40 42 40 43 37 50 50 47 47 46 47
50 51 50 46 47 48 44 40 38 35 40 33 28 28 30 31 31 31 34 39 43 42 40 36 32 31 32 29 34 38 39 37 41 38 36 30 42 53 46 48 49 51 46
51 50 46 42 46 46 39 36 35 36 33 28 29 25 26 27 29 26 29 36 39 40 37 36 35 33 30 29 32 34 38 37 36 34 34 35 40 42 46 53 44 43 43
48 44 44 43 44 42 37 36 35 31 28 29 25 23 24 29 28 27 27 31 35 35 36 35 33 31 29 29 29 32 32 29 32 33 31 39 38 47 46 42 40 42 40
42 43 42 42 42 37 35 34 32 28 24 22 21 20 21 23 24 25 27 29 30 33 33 33 33 31 29 28 28 28 24 26 31 29 32 38 44 42 40 37 40 38 36
38 42 41 40 38 34 34 31 28 25 22 20 19 18 17 19 21 21 22 24 27 31 33 33 32 32 28 27 27 27 29 32 29 28 33 36 43 40 34 34 33 32 32
36 43 40 40 38 32 30 28 25 24 19 16 14 13 12 12 14 17 20 24 27 29 31 33 30 30 34 38 34 31 31 31 30 32 33 40 34 30 29 28 27 25 26
37 40 37 37 33 30 30 26 21 17 17 14 11 12 12 12 15 19 21 22 25 29 39 38 34 30 25 24 26 31 31 30 28 31 38 33 28 25 24 22 22 24 22
39 35 35 35 29 29 29 19 14 17 15 15 13 13 14 17 15 18 22 25 23 19 3 12 24 27 29 25 28 30 28 28 33 36 28 24 22 21 21 21 20 19 21
35 32 32 29 24 28 25 13 10 13 17 13 10 10 13 16 7 7 6 7 14 20 17 22 28 24 23 26 25 25 27 32 34 26 20 20 21 20 20 20 19 16 12
28 29 28 25 22 23 20 15 15 14 14 16 15 12 10 10 12 15 14 21 27 25 26 25 25 27 31 31 32 32 32 24 18 19 20 20 19 21 20 19 16 14 11
26 28 25 24 19 16 14 14 13 13 16 14 13 13 9 7 12 15 19 21 24 26 28 29 27 27 28 27 24 21 19 20 20 20 19 22 21 23 18 16 17 15 13
23 25 23 23 19 15 12 11 9 10 13 12 9 9 9 10 15 20 20 23 24 26 27 26 26 24 23 22 21 23 22 21 20 24 21 20 22 17 16 16 21 22 22
22 23 23 25 19 18 15 13 11 12 12 8 9 11 12 12 20 24 23 23 21 21 21 19 20 21 21 23 22 19 20 26 21 15 15 20 24 18 19 22 26 25 21
19 20 21 23 20 17 15 13 11 11 8 6 8 10 11 15 18 17 17 18 18 17 14 26 24 22 17 16 19 23 30 17 15 15 25 23 21 22 23 25 24 21 19
16 16 16 16 19 16 14 13 13 9 7 5 4 8 15 17 13 9 11 12 13 16 27 26 21 16 16 16 20 32 23 17 13 16 19 23 23 18 22 25 25 23 25
14 14 14 13 15 16 15 12 13 11 7 7 7 9 10 12 15 13 13 15 16 22 30 21 19 17 17 16 19 29 21 18 15 16 24 27 23 24 24 25 27 28 25
10 12 13 12 13 14 13 11 11 13 11 10 11 11 11 12 13 14 12 18 23 28 20 19 17 17 17 17 19 26 26 19 17 18 25 28 26 28 25 28 29 29 31
8 9 9 11 12 12 12 10 8 8 9 10 10 10 13 13 11 12 15 21 23 19 16 17 18 18 16 16 19 19 21 21 20 16 22 24 26 30 27 30 33 32 35
Wind_Direction
313 312 309 307 306 303 299 296 292 289 287 283 283 279 273 266 267 266 261 257 252 252 251 249 249 248 247 247 249 247 248 246 245 239 238 247 240 243 244 241 240 242 247
314 312 309 308 307 304 299 294 289 285 283 282 280 277 269 263 263 263 261 258 255 251 249 247 244 246 246 246 249 251 248 249 245 240 235 237 243 241 244 242 239 239 243
313 311 310 311 310 307 303 296 292 290 285 280 277 272 265 260 261 262 259 257 256 254 250 247 242 242 244 243 246 251 252 249 247 248 241 233 238 240 241 241 239 237 239
314 313 316 315 313 309 305 298 290 288 285 280 274 269 259 259 257 260 261 258 254 254 252 250 242 241 243 244 243 244 251 251 249 250 248 236 240 235 236 242 241 237 238
317 318 318 318 316 310 304 299 293 290 285 280 274 267 261 259 258 254 254 250 255 252 253 251 244 241 243 245 244 245 247 250 250 249 245 236 242 232 234 238 244 242 239
318 317 318 317 314 311 307 300 292 293 288 283 274 267 260 254 257 257 255 245 251 252 251 252 250 248 247 246 243 244 249 247 249 249 247 238 240 242 235 241 245 245 242
317 319 318 316 314 308 307 304 296 300 295 285 278 264 258 257 258 259 252 249 249 250 250 252 252 248 249 251 247 244 249 247 246 251 247 240 249 235 231 240 245 247 244
321 319 318 317 315 315 309 306 301 302 301 289 279 264 255 257 254 252 250 249 250 250 249 250 252 249 255 257 253 247 248 246 248 245 246 241 241 235 234 241 246 247 240
321 320 319 319 320 319 314 307 303 297 300 288 278 267 257 256 254 250 249 245 246 248 249 248 249 249 255 260 250 245 247 245 244 254 246 238 236 235 221 229 233 237 238
322 322 322 321 323 322 318 314 305 298 292 292 277 270 258 256 249 250 247 244 242 244 245 245 251 250 257 258 247 250 247 242 245 243 241 237 235 230 223 226 232 239 237
323 324 327 323 322 321 317 320 320 309 298 290 284 272 261 255 256 253 246 242 243 242 242 246 251 254 257 258 253 246 243 240 236 244 231 238 235 238 226 229 235 237 237
327 329 327 325 325 324 323 318 320 317 308 297 289 279 269 260 254 250 247 242 239 244 244 249 251 253 256 251 247 241 235 231 238 229 234 226 225 227 219 224 231 233 239
331 334 330 330 327 327 326 322 323 326 327 315 302 291 277 265 257 248 242 240 242 246 250 251 252 252 246 237 229 229 239 241 224 228 223 230 220 214 214 219 226 235 244
330 334 334 330 330 330 331 325 328 332 328 320 309 296 283 269 262 256 250 248 249 252 254 256 252 249 251 254 252 239 222 212 218 220 232 213 204 208 209 220 229 239 245
334 336 334 333 338 337 333 328 319 324 322 321 317 308 298 282 270 261 256 251 252 257 263 261 246 234 227 209 199 198 199 206 215 221 201 194 197 203 214 222 228 235 241
338 340 340 342 347 342 336 326 313 319 330 330 330 326 313 304 288 265 260 254 246 221 244 193 176 182 180 187 194 192 200 211 207 192 181 184 193 204 208 214 222 227 243
340 345 345 346 347 353 349 347 350 335 337 340 349 9 27 4 26 91 134 118 151 177 177 161 160 161 177 177 186 191 196 199 185 164 169 185 191 192 205 203 216 228 210
347 352 349 352 352 0 14 21 23 38 44 61 67 71 51 30 66 72 79 109 117 133 146 152 155 165 172 179 184 185 179 157 149 171 172 173 189 186 195 205 199 171 163
359 359 3 4 3 10 24 26 64 70 44 47 44 49 58 46 83 106 119 128 136 143 148 155 164 166 158 148 138 138 146 150 154 162 175 172 180 184 185 179 162 156 156
10 10 11 17 22 23 34 56 71 31 42 54 65 79 93 113 117 129 133 142 148 149 147 139 129 123 124 130 135 136 144 162 163 154 172 180 162 159 173 164 161 160 149
17 20 26 29 36 42 60 67 60 34 33 60 103 116 123 129 125 121 117 116 118 120 120 127 127 126 125 124 133 159 160 150 158 163 162 158 153 165 159 161 161 149 149
17 24 31 41 41 45 59 63 35 30 54 102 118 123 129 133 122 117 116 117 114 112 114 113 107 116 130 153 153 149 139 146 152 143 140 139 139 162 162 164 149 144 141
17 22 34 39 48 45 47 39 33 27 23 48 78 89 99 83 81 86 98 103 105 126 123 117 114 118 113 130 144 144 140 128 134 132 145 158 158 154 159 158 146 147 149
21 24 31 47 58 51 41 38 41 45 42 43 62 88 92 68 74 92 112 122 127 132 120 116 115 112 107 107 134 150 147 125 121 118 133 142 143 139 145 146 139 133 133
18 24 34 46 57 61 57 44 41 42 48 60 71 73 61 60 72 83 105 126 132 124 109 115 115 110 105 104 122 153 156 147 115 117 137 142 134 138 135 142 144 141 142
20 16 37 55 63 69 73 73 61 53 57 66 68 60 56 54 63 92 110 121 110 106 118 120 113 108 104 104 112 132 155 155 129 120 131 132 127 135 130 132 130 128 134